Location: Observatoire
(46.1952°N, 5.3391°E)
Time: 17:22:47
(UTC+01:00)

Explorer 11/Cluster Stage 4 - Pass Details

Date: 25 February 2026
Orbit: 463 x 1175 km, 28.8° (Epoch: 11 March)

Event Time Altitude Azimuth Distance (km) Brightness Sun altitude
Rises 11:15:50 0° 226° (SW) 3,547 10.1 30.8°
Reaches altitude 10° 11:20:47 10° 194° (SSW) 2,391 9.9 31.2°
Maximum altitude 11:22:18 11° 178° (S) 2,247 10.1 31.3°
Drops below altitude 10° 11:23:45 10° 162° (SSE) 2,254 10.5 31.4°
Sets 11:27:55 0° 127° (SE) 2,976 10.4 31.7°
